| time (UTC) | temp F | wind direction | speed MPH | gust MPH | rain 1hr in | rain 24hr in | rain mn in | humidity % | barometer mb |
| 20260903174221 | 72 | 199 | 13.0 | 16.0 | 0.00 | 0.00 | 0.00 | 37 | 1009.1 |
| 20260903173716 | 71 | 240 | 11.0 | 14.0 | 0.00 | 0.00 | 0.00 | 36 | 1009.2 |
| 20260903173212 | 71 | 232 | 11.0 | 14.0 | 0.00 | 0.00 | 0.00 | 38 | 1009.3 |
| 20260903172712 | 71 | 216 | 12.0 | 15.0 | 0.00 | 0.00 | 0.00 | 37 | 1009.3 |
| 20260903172207 | 70 | 227 | 17.0 | 20.0 | 0.00 | 0.00 | 0.00 | 37 | 1009.0 |
| 20260903171702 | 70 | 221 | 16.0 | 17.0 | 0.00 | 0.00 | 0.00 | 38 | 1009.2 |
| 20260903171158 | 70 | 221 | 14.0 | 16.0 | 0.00 | 0.00 | 0.00 | 36 | 1009.4 |
| 20260903170656 | 70 | 225 | 14.0 | 16.0 | 0.00 | 0.00 | 0.00 | 37 | 1009.2 |
| 20260903170153 | 70 | 224 | 15.0 | 18.0 | 0.00 | 0.00 | 0.00 | 38 | 1009.1 |
| 20260903165650 | 70 | 232 | 11.0 | 14.0 | 0.00 | 0.00 | 0.00 | 40 | 1009.3 |
| 20260903165145 | 70 | 240 | 12.0 | 14.0 | 0.00 | 0.00 | 0.00 | 38 | 1009.3 |
| 20260903164639 | 70 | 228 | 13.0 | 15.0 | 0.00 | 0.00 | 0.00 | 39 | 1009.1 |
| 20260903164136 | 70 | 226 | 13.0 | 15.0 | 0.00 | 0.00 | 0.00 | 38 | 1009.2 |
| 20260903163630 | 70 | 232 | 11.0 | 13.0 | 0.00 | 0.00 | 0.00 | 41 | 1009.1 |
| 20260903163127 | 69 | 224 | 10.0 | 13.0 | 0.00 | 0.00 | 0.00 | 41 | 1009.1 |
| 20260903162622 | 69 | 233 | 11.0 | 17.0 | 0.00 | 0.00 | 0.00 | 40 | 1009.0 |
| 20260903162119 | 69 | 218 | 14.0 | 16.0 | 0.00 | 0.00 | 0.00 | 41 | 1009.0 |
| 20260903161619 | 68 | 235 | 14.0 | 16.0 | 0.00 | 0.00 | 0.00 | 42 | 1009.0 |
| 20260903161114 | 67 | 193 | 4.0 | 6.0 | 0.00 | 0.00 | 0.00 | 49 | 1008.8 |
| 20260903160609 | 66 | 217 | 4.0 | 5.0 | 0.00 | 0.00 | 0.00 | 51 | 1009.1 |
| 20260903160103 | 65 | 221 | 4.0 | 5.0 | 0.00 | 0.00 | 0.00 | 52 | 1009.0 |
| 20260903155602 | 65 | 215 | 4.0 | 5.0 | 0.00 | 0.00 | 0.00 | 53 | 1009.2 |
| 20260903155057 | 64 | 235 | 5.0 | 6.0 | 0.00 | 0.00 | 0.00 | 54 | 1009.0 |
| 20260903154553 | 63 | 211 | 5.0 | 6.0 | 0.00 | 0.00 | 0.00 | 55 | 1009.1 |
| 20260903154049 | 62 | 199 | 6.0 | 6.0 | 0.00 | 0.00 | 0.00 | 56 | 1009.3 |
| 20260903153544 | 61 | 216 | 7.0 | 8.0 | 0.00 | 0.00 | 0.00 | 60 | 1009.2 |
| 20260903153040 | 61 | 211 | 7.0 | 9.0 | 0.00 | 0.00 | 0.00 | 60 | 1009.2 |
| 20260903152536 | 60 | 224 | 6.0 | 8.0 | 0.00 | 0.00 | 0.00 | 60 | 1009.1 |
| 20260903152033 | 60 | 208 | 7.0 | 8.0 | 0.00 | 0.00 | 0.00 | 61 | 1009.3 |
| 20260903151531 | 59 | 229 | 8.0 | 9.0 | 0.00 | 0.00 | 0.00 | 64 | 1009.3 |
| 20260903151027 | 58 | 222 | 6.0 | 7.0 | 0.00 | 0.00 | 0.00 | 65 | 1009.3 |
| 20260903150526 | 56 | 210 | 6.0 | 6.0 | 0.00 | 0.00 | 0.00 | 68 | 1009.4 |
| 20260903150022 | 55 | 222 | 8.0 | 9.0 | 0.00 | 0.00 | 0.00 | 67 | 1009.2 |
| 20260903145516 | 55 | 229 | 8.0 | 9.0 | 0.00 | 0.00 | 0.00 | 68 | 1009.3 |
| 20260903145012 | 55 | 210 | 7.0 | 7.0 | 0.00 | 0.00 | 0.00 | 68 | 1009.3 |
| 20260903144510 | 55 | 222 | 8.0 | 9.0 | 0.00 | 0.00 | 0.00 | 67 | 1009.3 |
| 20260903144007 | 55 | 232 | 7.0 | 8.0 | 0.00 | 0.00 | 0.00 | 67 | 1009.3 |
| 20260903143503 | 55 | 235 | 8.0 | 9.0 | 0.00 | 0.00 | 0.00 | 66 | 1009.4 |
| 20260903142958 | 55 | 231 | 8.0 | 9.0 | 0.00 | 0.00 | 0.00 | 66 | 1009.4 |
| 20260903142453 | 55 | 236 | 9.0 | 11.0 | 0.00 | 0.00 | 0.00 | 65 | 1009.5 |
| 20260903141950 | 55 | 231 | 8.0 | 9.0 | 0.00 | 0.00 | 0.00 | 65 | 1009.4 |
| 20260903141445 | 56 | 219 | 9.0 | 10.0 | 0.00 | 0.00 | 0.00 | 65 | 1009.3 |
| 20260903140940 | 56 | 232 | 9.0 | 11.0 | 0.00 | 0.00 | 0.00 | 64 | 1009.5 |
| 20260903140436 | 55 | 241 | 9.0 | 10.0 | 0.00 | 0.00 | 0.00 | 66 | 1009.3 |
| 20260903135931 | 55 | 229 | 7.0 | 9.0 | 0.00 | 0.00 | 0.00 | 68 | 1009.3 |
| 20260903135427 | 53 | 218 | 9.0 | 10.0 | 0.00 | 0.00 | 0.00 | 70 | 1009.0 |
| 20260903134921 | 54 | 221 | 8.0 | 8.0 | 0.00 | 0.00 | 0.00 | 71 | 1009.0 |
| 20260903134420 | 53 | 223 | 8.0 | 10.0 | 0.00 | 0.00 | 0.00 | 69 | 1009.0 |
| 20260903133918 | 52 | 238 | 8.0 | 9.0 | 0.00 | 0.00 | 0.00 | 71 | 1009.2 |
| 20260903133414 | 52 | 220 | 7.0 | 9.0 | 0.00 | 0.00 | 0.00 | 72 | 1009.0 |
| 20260903132909 | 51 | 209 | 7.0 | 9.0 | 0.00 | 0.00 | 0.00 | 72 | 1009.0 |
| 20260903132405 | 51 | 220 | 6.0 | 7.0 | 0.00 | 0.00 | 0.00 | 74 | 1008.7 |
| 20260903131904 | 50 | 223 | 6.0 | 7.0 | 0.00 | 0.00 | 0.00 | 75 | 1008.7 |
| 20260903131359 | 50 | 230 | 6.0 | 7.0 | 0.00 | 0.00 | 0.00 | 74 | 1008.6 |
| 20260903130858 | 49 | 243 | 7.0 | 8.0 | 0.00 | 0.00 | 0.00 | 76 | 1008.7 |
| 20260903130353 | 47 | 229 | 7.0 | 8.0 | 0.00 | 0.00 | 0.00 | 81 | 1008.4 |
| 20260903125851 | 46 | 215 | 5.0 | 6.0 | 0.00 | 0.00 | 0.00 | 86 | 1008.5 |
| 20260903125341 | 46 | 164 | 4.0 | 5.0 | 0.00 | 0.00 | 0.00 | 82 | 1008.5 |
| 20260903124840 | 46 | 191 | 0.0 | 0.0 | 0.00 | 0.00 | 0.00 | 83 | 1008.4 |
| 20260903124336 | 45 | 199 | 0.0 | 0.0 | 0.00 | 0.00 | 0.00 | 84 | 1008.6 |
| 20260903123834 | 45 | 198 | 0.0 | 0.0 | 0.00 | 0.00 | 0.00 | 84 | 1008.5 |
| 20260903123329 | 46 | 189 | 0.0 | 0.0 | 0.00 | 0.00 | 0.00 | 82 | 1008.4 |
| 20260903122828 | 46 | 222 | 0.0 | 0.0 | 0.00 | 0.00 | 0.00 | 81 | 1008.4 |
| 20260903122322 | 46 | 263 | 0.0 | 1.0 | 0.00 | 0.00 | 0.00 | 81 | 1008.4 |
| 20260903121820 | 47 | 182 | 1.0 | 1.0 | 0.00 | 0.00 | 0.00 | 79 | 1008.3 |
| 20260903121311 | 48 | 234 | 0.0 | 0.0 | 0.00 | 0.00 | 0.00 | 77 | 1008.3 |
| 20260903120806 | 48 | 184 | 1.0 | 1.0 | 0.00 | 0.00 | 0.00 | 78 | 1008.5 |
| 20260903120300 | 46 | 87 | 2.0 | 2.0 | 0.00 | 0.00 | 0.00 | 80 | 1008.4 |
| 20260903115759 | 47 | 92 | 3.0 | 3.0 | 0.00 | 0.00 | 0.00 | 80 | 1008.3 |
| 20260903115254 | 48 | 207 | 3.0 | 5.0 | 0.00 | 0.00 | 0.00 | 79 | 1008.3 |
| 20260903114748 | 48 | 219 | 5.0 | 6.0 | 0.00 | 0.00 | 0.00 | 77 | 1008.1 |
| 20260903114244 | 47 | 214 | 3.0 | 3.0 | 0.00 | 0.00 | 0.00 | 78 | 1008.2 |
| 20260903113738 | 47 | 270 | 0.0 | 0.0 | 0.00 | 0.00 | 0.00 | 81 | 1008.3 |
| 20260903113235 | 47 | 281 | 0.0 | 0.0 | 0.00 | 0.00 | 0.00 | 80 | 1008.3 |
| 20260903112730 | 47 | 289 | 0.0 | 0.0 | 0.00 | 0.00 | 0.00 | 79 | 1008.3 |
| 20260903112226 | 48 | 305 | 1.0 | 2.0 | 0.00 | 0.00 | 0.00 | 78 | 1008.3 |
| 20260903111724 | 48 | 253 | 3.0 | 3.0 | 0.00 | 0.00 | 0.00 | 77 | 1008.4 |
| 20260903111220 | 49 | 217 | 4.0 | 5.0 | 0.00 | 0.00 | 0.00 | 76 | 1008.4 |
| 20260903110716 | 49 | 235 | 4.0 | 6.0 | 0.00 | 0.00 | 0.00 | 74 | 1008.4 |
| 20260903110212 | 50 | 219 | 5.0 | 6.0 | 0.00 | 0.00 | 0.00 | 73 | 1008.2 |
| 20260903105711 | 50 | 238 | 7.0 | 8.0 | 0.00 | 0.00 | 0.00 | 72 | 1008.4 |
| 20260903105206 | 51 | 237 | 7.0 | 7.0 | 0.00 | 0.00 | 0.00 | 71 | 1008.2 |
| 20260903104706 | 51 | 227 | 7.0 | 9.0 | 0.00 | 0.00 | 0.00 | 70 | 1008.2 |
| 20260903104201 | 50 | 228 | 7.0 | 8.0 | 0.00 | 0.00 | 0.00 | 71 | 1008.3 |
| 20260903103657 | 50 | 238 | 5.0 | 7.0 | 0.00 | 0.00 | 0.00 | 72 | 1008.1 |
| 20260903103154 | 49 | 222 | 5.0 | 6.0 | 0.00 | 0.00 | 0.00 | 73 | 1008.0 |
| 20260903102654 | 49 | 234 | 5.0 | 6.0 | 0.00 | 0.00 | 0.00 | 75 | 1008.2 |
| 20260903102148 | 50 | 225 | 5.0 | 6.0 | 0.00 | 0.00 | 0.00 | 72 | 1008.1 |
| 20260903101647 | 50 | 226 | 5.0 | 7.0 | 0.00 | 0.00 | 0.00 | 72 | 1008.1 |
| 20260903101143 | 50 | 241 | 8.0 | 9.0 | 0.00 | 0.00 | 0.00 | 71 | 1007.9 |
| 20260903100637 | 51 | 225 | 9.0 | 10.0 | 0.00 | 0.00 | 0.00 | 70 | 1007.9 |
| 20260903100137 | 51 | 219 | 8.0 | 9.0 | 0.00 | 0.00 | 0.00 | 69 | 1007.9 |
| 20260903095635 | 50 | 229 | 7.0 | 8.0 | 0.00 | 0.00 | 0.00 | 71 | 1007.9 |
| 20260903095135 | 49 | 231 | 5.0 | 6.0 | 0.00 | 0.00 | 0.00 | 74 | 1008.1 |
| 20260903094630 | 49 | 221 | 3.0 | 3.0 | 0.00 | 0.00 | 0.00 | 74 | 1008.2 |
| 20260903094125 | 48 | 220 | 2.0 | 3.0 | 0.00 | 0.00 | 0.00 | 75 | 1008.0 |
| 20260903093620 | 48 | 262 | 0.0 | 0.0 | 0.00 | 0.00 | 0.00 | 76 | 1008.0 |
| 20260903093116 | 49 | 275 | 1.0 | 1.0 | 0.00 | 0.00 | 0.00 | 75 | 1007.9 |
| 20260903092615 | 49 | 227 | 3.0 | 3.0 | 0.00 | 0.00 | 0.00 | 74 | 1007.5 |
| 20260903092110 | 49 | 240 | 0.0 | 1.0 | 0.00 | 0.00 | 0.00 | 74 | 1007.6 |
| 20260903091608 | 48 | 222 | 4.0 | 5.0 | 0.00 | 0.00 | 0.00 | 75 | 1007.6 |
| 20260903091103 | 49 | 253 | 6.0 | 7.0 | 0.00 | 0.00 | 0.00 | 73 | 1007.9 |
| 20260903090559 | 50 | 232 | 9.0 | 9.0 | 0.00 | 0.00 | 0.00 | 71 | 1007.7 |
| 20260903090057 | 51 | 229 | 8.0 | 8.0 | 0.00 | 0.00 | 0.00 | 69 | 1007.5 |
| 20260903085556 | 51 | 235 | 8.0 | 10.0 | 0.00 | 0.00 | 0.00 | 69 | 1007.4 |
| 20260903085052 | 51 | 227 | 8.0 | 8.0 | 0.00 | 0.00 | 0.00 | 69 | 1007.4 |
| 20260903084549 | 50 | 230 | 9.0 | 11.0 | 0.00 | 0.00 | 0.00 | 70 | 1007.5 |
| 20260903084044 | 50 | 221 | 4.0 | 6.0 | 0.00 | 0.00 | 0.00 | 71 | 1007.6 |
| 20260903083540 | 51 | 207 | 3.0 | 5.0 | 0.00 | 0.00 | 0.00 | 70 | 1007.7 |
| 20260903083040 | 51 | 227 | 6.0 | 7.0 | 0.00 | 0.00 | 0.00 | 69 | 1007.7 |
| 20260903082534 | 51 | 224 | 6.0 | 6.0 | 0.00 | 0.00 | 0.00 | 69 | 1007.6 |
| 20260903082030 | 51 | 247 | 7.0 | 8.0 | 0.00 | 0.00 | 0.00 | 68 | 1007.6 |
| 20260903081525 | 51 | 235 | 7.0 | 8.0 | 0.00 | 0.00 | 0.00 | 68 | 1007.4 |
| 20260903081021 | 52 | 236 | 6.0 | 7.0 | 0.00 | 0.00 | 0.00 | 68 | 1007.6 |
| 20260903080517 | 51 | 226 | 7.0 | 7.0 | 0.00 | 0.00 | 0.00 | 67 | 1007.6 |
| 20260903080014 | 51 | 240 | 5.0 | 5.0 | 0.00 | 0.00 | 0.00 | 70 | 1007.6 |
| 20260903075508 | 51 | 240 | 4.0 | 5.0 | 0.00 | 0.00 | 0.00 | 69 | 1007.6 |
| 20260903075003 | 52 | 236 | 5.0 | 6.0 | 0.00 | 0.00 | 0.00 | 69 | 1007.6 |
| 20260903074502 | 52 | 236 | 5.0 | 6.0 | 0.00 | 0.00 | 0.00 | 68 | 1007.6 |
| 20260903073957 | 51 | 223 | 6.0 | 7.0 | 0.00 | 0.00 | 0.00 | 69 | 1007.5 |
| 20260903073452 | 51 | 231 | 6.0 | 7.0 | 0.00 | 0.00 | 0.00 | 71 | 1007.9 |
| 20260903072948 | 51 | 209 | 5.0 | 6.0 | 0.00 | 0.00 | 0.00 | 73 | 1008.0 |
| 20260903072444 | 50 | 228 | 6.0 | 8.0 | 0.00 | 0.00 | 0.00 | 74 | 1008.1 |
| 20260903071941 | 50 | 204 | 6.0 | 7.0 | 0.00 | 0.00 | 0.00 | 76 | 1008.1 |
| 20260903071436 | 49 | 198 | 6.0 | 7.0 | 0.00 | 0.00 | 0.00 | 76 | 1008.1 |
| 20260903070932 | 49 | 218 | 4.0 | 5.0 | 0.00 | 0.00 | 0.00 | 78 | 1007.9 |
| 20260903070426 | 49 | 203 | 1.0 | 2.0 | 0.00 | 0.00 | 0.00 | 79 | 1008.0 |
| 20260903065920 | 50 | 218 | 3.0 | 3.0 | 0.00 | 0.00 | 0.00 | 77 | 1007.7 |
| 20260903065415 | 50 | 211 | 3.0 | 3.0 | 0.00 | 0.00 | 0.00 | 76 | 1007.9 |
| 20260903064914 | 55 | 199 | 9.0 | 10.0 | 0.00 | 0.00 | 0.00 | 65 | 1007.7 |
| 20260903064410 | 55 | 242 | 3.0 | 3.0 | 0.00 | 0.00 | 0.00 | 63 | 1007.6 |
| 20260903063905 | 55 | 264 | 2.0 | 2.0 | 0.00 | 0.00 | 0.00 | 63 | 1007.4 |
| 20260903063401 | 55 | 260 | 3.0 | 5.0 | 0.00 | 0.00 | 0.00 | 63 | 1007.4 |
| 20260903062856 | 54 | 257 | 4.0 | 5.0 | 0.00 | 0.00 | 0.00 | 65 | 1007.6 |
| 20260903062350 | 54 | 251 | 2.0 | 2.0 | 0.00 | 0.00 | 0.00 | 67 | 1007.2 |
| 20260903061847 | 54 | 301 | 2.0 | 2.0 | 0.00 | 0.00 | 0.00 | 67 | 1007.4 |
| 20260903061345 | 53 | 225 | 4.0 | 6.0 | 0.00 | 0.00 | 0.00 | 69 | 1007.6 |
| 20260903060842 | 51 | 228 | 3.0 | 5.0 | 0.00 | 0.00 | 0.00 | 73 | 1007.3 |
| 20260903060341 | 50 | 247 | 3.0 | 3.0 | 0.00 | 0.00 | 0.00 | 76 | 1007.5 |
| 20260903055839 | 50 | 226 | 3.0 | 3.0 | 0.00 | 0.05 | 0.05 | 78 | 1007.6 |
| 20260903055337 | 50 | 223 | 5.0 | 6.0 | 0.00 | 0.05 | 0.05 | 79 | 1007.6 |
| 20260903054832 | 51 | 209 | 4.0 | 5.0 | 0.00 | 0.05 | 0.05 | 77 | 1007.6 |
| 20260903054332 | 52 | 225 | 6.0 | 7.0 | 0.00 | 0.05 | 0.05 | 73 | 1007.5 |
| 20260903053829 | 54 | 199 | 5.0 | 5.0 | 0.00 | 0.05 | 0.05 | 71 | 1007.5 |
| 20260903053323 | 54 | 232 | 6.0 | 7.0 | 0.00 | 0.05 | 0.05 | 68 | 1007.6 |
| 20260903052819 | 55 | 222 | 7.0 | 7.0 | 0.00 | 0.05 | 0.05 | 65 | 1007.5 |
| 20260903052314 | 55 | 230 | 9.0 | 10.0 | 0.00 | 0.05 | 0.05 | 65 | 1007.6 |
| 20260903051811 | 55 | 222 | 9.0 | 10.0 | 0.00 | 0.05 | 0.05 | 66 | 1008.1 |
| 20260903051305 | 56 | 215 | 9.0 | 10.0 | 0.00 | 0.05 | 0.05 | 65 | 1008.4 |
| 20260903050801 | 56 | 223 | 10.0 | 11.0 | 0.00 | 0.05 | 0.05 | 63 | 1008.5 |
| 20260903050300 | 56 | 223 | 7.0 | 9.0 | 0.00 | 0.05 | 0.05 | 65 | 1008.5 |
| 20260903045755 | 57 | 229 | 8.0 | 9.0 | 0.00 | 0.05 | 0.05 | 63 | 1008.7 |
| 20260903045251 | 57 | 203 | 7.0 | 8.0 | 0.00 | 0.05 | 0.05 | 63 | 1008.8 |
| 20260903044747 | 56 | 236 | 5.0 | 6.0 | 0.00 | 0.05 | 0.05 | 65 | 1008.8 |
| 20260903044242 | 56 | 225 | 3.0 | 3.0 | 0.00 | 0.05 | 0.05 | 68 | 1009.0 |
| 20260903043739 | 55 | 224 | 5.0 | 8.0 | 0.00 | 0.05 | 0.05 | 69 | 1009.0 |
| 20260903043238 | 54 | 222 | 6.0 | 7.0 | 0.00 | 0.05 | 0.05 | 70 | 1009.0 |
| 20260903042738 | 54 | 228 | 7.0 | 7.0 | 0.00 | 0.05 | 0.05 | 72 | 1009.1 |
| 20260903042233 | 54 | 232 | 5.0 | 6.0 | 0.00 | 0.05 | 0.05 | 72 | 1009.0 |
| 20260903041729 | 54 | 218 | 5.0 | 6.0 | 0.00 | 0.05 | 0.05 | 73 | 1009.2 |
| 20260903041225 | 53 | 219 | 5.0 | 6.0 | 0.00 | 0.05 | 0.05 | 76 | 1009.1 |
| 20260903040725 | 54 | 215 | 5.0 | 5.0 | 0.00 | 0.05 | 0.05 | 76 | 1009.0 |
| 20260903040219 | 53 | 214 | 3.0 | 3.0 | 0.00 | 0.05 | 0.05 | 75 | 1008.8 |
| 20260903035710 | 53 | 239 | 2.0 | 2.0 | 0.00 | 0.05 | 0.05 | 78 | 1008.8 |
| 20260903035206 | 53 | 244 | 2.0 | 2.0 | 0.00 | 0.05 | 0.05 | 76 | 1008.6 |
| 20260903034705 | 53 | 234 | 4.0 | 5.0 | 0.00 | 0.05 | 0.05 | 77 | 1008.6 |
| 20260903034200 | 52 | 224 | 1.0 | 2.0 | 0.00 | 0.05 | 0.05 | 80 | 1008.7 |
| 20260903033656 | 51 | 228 | 2.0 | 3.0 | 0.00 | 0.05 | 0.05 | 82 | 1008.7 |
| 20260903033156 | 51 | 209 | 0.0 | 0.0 | 0.00 | 0.05 | 0.05 | 83 | 1009.1 |
| 20260903032651 | 51 | 211 | 0.0 | 0.0 | 0.00 | 0.05 | 0.05 | 83 | 1008.8 |
| 20260903032146 | 51 | 213 | 0.0 | 0.0 | 0.00 | 0.05 | 0.05 | 83 | 1008.8 |
| 20260903031642 | 51 | 204 | 0.0 | 0.0 | 0.00 | 0.05 | 0.05 | 83 | 1008.7 |
| 20260903031136 | 51 | 173 | 0.0 | 1.0 | 0.00 | 0.05 | 0.05 | 83 | 1009.0 |
| 20260903030632 | 51 | 186 | 0.0 | 0.0 | 0.00 | 0.05 | 0.05 | 83 | 1009.1 |
| 20260903030127 | 52 | 221 | 0.0 | 0.0 | 0.00 | 0.05 | 0.05 | 82 | 1009.0 |
| 20260903025622 | 52 | 232 | 0.0 | 0.0 | 0.00 | 0.05 | 0.05 | 82 | 1008.8 |
| 20260903025118 | 52 | 235 | 0.0 | 0.0 | 0.00 | 0.05 | 0.05 | 81 | 1008.5 |
| 20260903024613 | 53 | 235 | 0.0 | 0.0 | 0.00 | 0.05 | 0.05 | 80 | 1008.4 |
| 20260903024106 | 53 | 235 | 0.0 | 0.0 | 0.00 | 0.05 | 0.05 | 78 | 1008.4 |
| 20260903023603 | 53 | 238 | 0.0 | 0.0 | 0.00 | 0.05 | 0.05 | 78 | 1008.2 |
| 20260903023058 | 54 | 241 | 0.0 | 0.0 | 0.00 | 0.05 | 0.05 | 78 | 1008.2 |
| 20260903022557 | 54 | 242 | 0.0 | 0.0 | 0.00 | 0.05 | 0.05 | 77 | 1008.3 |
| 20260903022056 | 55 | 242 | 0.0 | 0.0 | 0.00 | 0.05 | 0.05 | 76 | 1008.2 |
| 20260903021551 | 55 | 246 | 0.0 | 0.0 | 0.00 | 0.05 | 0.05 | 74 | 1008.2 |
| 20260903021051 | 56 | 247 | 0.0 | 0.0 | 0.00 | 0.05 | 0.05 | 73 | 1008.3 |
| 20260903020547 | 57 | 244 | 0.0 | 0.0 | 0.00 | 0.05 | 0.05 | 72 | 1008.5 |
| 20260903020041 | 58 | 239 | 0.0 | 0.0 | 0.00 | 0.05 | 0.05 | 69 | 1008.2 |
| 20260903015537 | 59 | 239 | 0.0 | 0.0 | 0.00 | 0.05 | 0.05 | 69 | 1008.4 |
| 20260903015032 | 59 | 224 | 0.0 | 0.0 | 0.00 | 0.05 | 0.05 | 68 | 1008.4 |
| 20260903014531 | 60 | 225 | 0.0 | 0.0 | 0.00 | 0.05 | 0.05 | 68 | 1008.6 |
| 20260903014026 | 60 | 224 | 0.0 | 1.0 | 0.00 | 0.05 | 0.05 | 67 | 1008.4 |
| 20260903013525 | 60 | 242 | 0.0 | 0.0 | 0.00 | 0.05 | 0.05 | 67 | 1007.9 |
| 20260903013020 | 61 | 350 | 2.0 | 2.0 | 0.00 | 0.05 | 0.05 | 67 | 1008.0 |
| 20260903012514 | 61 | 242 | 0.0 | 0.0 | 0.00 | 0.05 | 0.05 | 66 | 1008.4 |
| 20260903012013 | 61 | 224 | 0.0 | 0.0 | 0.00 | 0.05 | 0.05 | 64 | 1008.5 |
| 20260903011507 | 62 | 232 | 1.0 | 1.0 | 0.00 | 0.05 | 0.05 | 61 | 1008.8 |
| 20260903011002 | 62 | 317 | 0.0 | 0.0 | 0.00 | 0.05 | 0.05 | 61 | 1008.7 |
| 20260903010457 | 62 | 251 | 0.0 | 0.0 | 0.00 | 0.05 | 0.05 | 59 | 1008.8 |
| 20260903005955 | 63 | 261 | 0.0 | 0.0 | 0.00 | 0.05 | 0.05 | 64 | 1008.4 |
| 20260903005450 | 64 | 262 | 1.0 | 1.0 | 0.00 | 0.05 | 0.05 | 55 | 1008.1 |
| 20260903004946 | 64 | 243 | 0.0 | 0.0 | 0.00 | 0.05 | 0.05 | 58 | 1008.0 |
| 20260903004441 | 64 | 233 | 1.0 | 2.0 | 0.00 | 0.05 | 0.05 | 54 | 1007.7 |
| 20260903003937 | 65 | 232 | 0.0 | 0.0 | 0.00 | 0.05 | 0.05 | 53 | 1007.7 |
| 20260903003437 | 64 | 225 | 0.0 | 0.0 | 0.00 | 0.05 | 0.05 | 51 | 1007.4 |
| 20260903002932 | 65 | 230 | 0.0 | 0.0 | 0.00 | 0.05 | 0.05 | 56 | 1007.3 |
| 20260903002427 | 65 | 350 | 1.0 | 1.0 | 0.00 | 0.05 | 0.05 | 53 | 1006.8 |
| 20260903001927 | 65 | 237 | 0.0 | 0.0 | 0.00 | 0.05 | 0.05 | 51 | 1006.8 |
| 20260903001427 | 65 | 272 | 4.0 | 5.0 | 0.00 | 0.05 | 0.05 | 50 | 1006.8 |
| 20260903000926 | 65 | 223 | 5.0 | 6.0 | 0.00 | 0.05 | 0.05 | 50 | 1006.5 |
| 20260903000422 | 64 | 265 | 2.0 | 3.0 | 0.00 | 0.05 | 0.05 | 50 | 1005.8 |
| 20260902235919 | 65 | 248 | 2.0 | 3.0 | 0.00 | 0.05 | 0.05 | 49 | 1005.6 |
| 20260902235414 | 65 | 308 | 6.0 | 10.0 | 0.00 | 0.05 | 0.05 | 49 | 1005.7 |
| 20260902234909 | 64 | 208 | 7.0 | 9.0 | 0.00 | 0.05 | 0.05 | 49 | 1006.0 |
| 20260902234404 | 64 | 210 | 7.0 | 13.0 | 0.00 | 0.05 | 0.05 | 49 | 1006.5 |
| 20260902233903 | 64 | 242 | 10.0 | 13.0 | 0.00 | 0.05 | 0.05 | 50 | 1006.9 |
| 20260902233357 | 64 | 268 | 10.0 | 13.0 | 0.00 | 0.05 | 0.05 | 50 | 1007.1 |
| 20260902232856 | 64 | 195 | 15.0 | 23.0 | 0.00 | 0.05 | 0.05 | 49 | 1007.2 |
| 20260902232351 | 64 | 239 | 20.0 | 23.0 | 0.00 | 0.05 | 0.05 | 49 | 1007.4 |
| 20260902231851 | 64 | 242 | 17.0 | 22.0 | 0.00 | 0.05 | 0.05 | 50 | 1007.5 |
| 20260902231346 | 64 | 253 | 20.0 | 26.0 | 0.00 | 0.05 | 0.05 | 51 | 1007.6 |
| 20260902230841 | 64 | 275 | 25.0 | 31.0 | 0.00 | 0.05 | 0.05 | 50 | 1007.4 |
| 20260902230340 | 63 | 238 | 22.0 | 25.0 | 0.00 | 0.05 | 0.05 | 53 | 1007.0 |
| 20260902225834 | 63 | 227 | 30.0 | 34.0 | 0.00 | 0.05 | 0.05 | 53 | 1007.0 |
| 20260902225329 | 63 | 243 | 29.0 | 33.0 | 0.00 | 0.05 | 0.05 | 53 | 1007.0 |
| 20260902224828 | 63 | 241 | 24.0 | 32.0 | 0.00 | 0.05 | 0.05 | 57 | 1007.0 |
| 20260902224323 | 62 | 205 | 25.0 | 31.0 | 0.00 | 0.05 | 0.05 | 59 | 1007.1 |
| 20260902223819 | 62 | 228 | 22.0 | 25.0 | 0.00 | 0.05 | 0.05 | 60 | 1007.2 |
| 20260902223313 | 61 | 221 | 17.0 | 27.0 | 0.00 | 0.05 | 0.05 | 62 | 1007.3 |
| 20260902222813 | 62 | 234 | 15.0 | 17.0 | 0.12 | 0.05 | 0.05 | 66 | 1006.7 |
| 20260902222307 | 63 | 221 | 24.0 | 27.0 | 0.05 | 0.04 | 0.04 | 69 | 1005.5 |
| 20260902221801 | 64 | 262 | 0.0 | 0.0 | 0.00 | 0.03 | 0.03 | 70 | 1003.6 |
| 20260902221300 | 69 | 267 | 5.0 | 6.0 | 0.07 | 0.03 | 0.03 | 59 | 1003.7 |
| 20260902220756 | 73 | 262 | 0.0 | 1.0 | 0.19 | 0.03 | 0.03 | 40 | 1003.7 |
| 20260902220255 | 73 | 344 | 7.0 | 8.0 | 0.12 | 0.02 | 0.02 | 51 | 1003.8 |
| 20260902215751 | 79 | 162 | 12.0 | 13.0 | 0.00 | 0.00 | 0.00 | 39 | 1003.7 |
| 20260902215246 | 81 | 170 | 10.0 | 11.0 | 0.00 | 0.00 | 0.00 | 33 | 1003.6 |
| 20260902214742 | 82 | 169 | 5.0 | 6.0 | 0.00 | 0.00 | 0.00 | 31 | 1003.7 |
| 20260902214241 | 82 | 161 | 6.0 | 7.0 | 0.00 | 0.00 | 0.00 | 30 | 1003.7 |
| 20260902213736 | 83 | 219 | 4.0 | 5.0 | 0.00 | 0.00 | 0.00 | 33 | 1003.8 |
| 20260902213231 | 83 | 233 | 7.0 | 10.0 | 0.00 | 0.00 | 0.00 | 31 | 1003.7 |
| 20260902212730 | 82 | 217 | 8.0 | 9.0 | 0.00 | 0.00 | 0.00 | 31 | 1003.9 |
| 20260902212227 | 82 | 226 | 5.0 | 7.0 | 0.00 | 0.00 | 0.00 | 31 | 1004.0 |
| 20260902211722 | 84 | 197 | 8.0 | 11.0 | 0.00 | 0.00 | 0.00 | 30 | 1004.2 |
| 20260902211218 | 84 | 235 | 6.0 | 7.0 | 0.00 | 0.00 | 0.00 | 30 | 1004.1 |
| 20260902210712 | 82 | 245 | 8.0 | 10.0 | 0.00 | 0.00 | 0.00 | 30 | 1004.0 |
| 20260902210208 | 83 | 228 | 3.0 | 5.0 | 0.00 | 0.00 | 0.00 | 30 | 1003.9 |
| 20260902205706 | 84 | 216 | 4.0 | 5.0 | 0.00 | 0.00 | 0.00 | 29 | 1004.2 |
| 20260902205201 | 84 | 196 | 11.0 | 15.0 | 0.00 | 0.00 | 0.00 | 31 | 1004.4 |
| 20260902204656 | 84 | 228 | 11.0 | 13.0 | 0.00 | 0.00 | 0.00 | 30 | 1004.6 |
| 20260902204156 | 83 | 200 | 4.0 | 5.0 | 0.00 | 0.00 | 0.00 | 30 | 1004.7 |
| 20260902203651 | 83 | 187 | 11.0 | 13.0 | 0.00 | 0.00 | 0.00 | 30 | 1004.9 |
| 20260902203146 | 82 | 230 | 4.0 | 5.0 | 0.00 | 0.00 | 0.00 | 30 | 1004.9 |
| 20260902202641 | 83 | 121 | 6.0 | 7.0 | 0.00 | 0.00 | 0.00 | 28 | 1005.0 |
| 20260902202138 | 83 | 178 | 4.0 | 5.0 | 0.00 | 0.00 | 0.00 | 29 | 1005.1 |
| 20260902201634 | 82 | 204 | 1.0 | 2.0 | 0.00 | 0.00 | 0.00 | 30 | 1005.2 |
| 20260902201133 | 82 | 217 | 6.0 | 7.0 | 0.00 | 0.00 | 0.00 | 31 | 1005.3 |
| 20260902200628 | 82 | 206 | 3.0 | 3.0 | 0.00 | 0.00 | 0.00 | 30 | 1005.5 |
| 20260902200124 | 82 | 232 | 10.0 | 13.0 | 0.00 | 0.00 | 0.00 | 33 | 1005.6 |
| 20260902195619 | 82 | 184 | 4.0 | 6.0 | 0.00 | 0.00 | 0.00 | 32 | 1005.7 |
| 20260902195118 | 82 | 235 | 3.0 | 3.0 | 0.00 | 0.00 | 0.00 | 33 | 1005.7 |
| 20260902194612 | 81 | 220 | 3.0 | 5.0 | 0.00 | 0.00 | 0.00 | 34 | 1005.7 |
| 20260902194108 | 79 | 216 | 3.0 | 3.0 | 0.00 | 0.00 | 0.00 | 32 | 1005.9 |
| 20260902193604 | 80 | 217 | 1.0 | 2.0 | 0.00 | 0.00 | 0.00 | 34 | 1006.1 |
| 20260902193103 | 79 | 202 | 4.0 | 5.0 | 0.00 | 0.00 | 0.00 | 36 | 1005.9 |
| 20260902192602 | 78 | 226 | 10.0 | 10.0 | 0.00 | 0.00 | 0.00 | 34 | 1006.2 |
| 20260902192100 | 79 | 247 | 6.0 | 8.0 | 0.00 | 0.00 | 0.00 | 35 | 1006.3 |
| 20260902191556 | 80 | 214 | 6.0 | 8.0 | 0.00 | 0.00 | 0.00 | 35 | 1006.2 |
| 20260902191050 | 80 | 228 | 3.0 | 6.0 | 0.00 | 0.00 | 0.00 | 35 | 1006.2 |
| 20260902190546 | 80 | 201 | 3.0 | 3.0 | 0.00 | 0.00 | 0.00 | 33 | 1006.2 |
| 20260902190041 | 79 | 234 | 6.0 | 9.0 | 0.00 | 0.00 | 0.00 | 36 | 1006.2 |
| 20260902185537 | 79 | 191 | 5.0 | 6.0 | 0.00 | 0.00 | 0.00 | 36 | 1006.3 |
| 20260902185033 | 78 | 215 | 5.0 | 7.0 | 0.00 | 0.00 | 0.00 | 36 | 1006.5 |
| 20260902184527 | 77 | 165 | 6.0 | 7.0 | 0.00 | 0.00 | 0.00 | 37 | 1006.4 |
| 20260902184023 | 77 | 198 | 5.0 | 8.0 | 0.00 | 0.00 | 0.00 | 37 | 1006.7 |
| 20260902183519 | 77 | 211 | 6.0 | 7.0 | 0.00 | 0.00 | 0.00 | 36 | 1006.7 |
| 20260902183015 | 77 | 178 | 6.0 | 7.0 | 0.00 | 0.00 | 0.00 | 39 | 1006.8 |
| 20260902182511 | 77 | 201 | 3.0 | 3.0 | 0.00 | 0.00 | 0.00 | 36 | 1006.9 |
| 20260902182006 | 77 | 230 | 5.0 | 6.0 | 0.00 | 0.00 | 0.00 | 38 | 1006.9 |
| 20260902181503 | 77 | 204 | 5.0 | 6.0 | 0.00 | 0.00 | 0.00 | 37 | 1007.0 |
| 20260902180957 | 76 | 223 | 4.0 | 5.0 | 0.00 | 0.00 | 0.00 | 38 | 1007.0 |
| 20260902180457 | 77 | 236 | 6.0 | 8.0 | 0.00 | 0.00 | 0.00 | 38 | 1007.0 |
| 20260902175952 | 77 | 203 | 5.0 | 6.0 | 0.00 | 0.00 | 0.00 | 38 | 1007.0 |
| 20260902175447 | 77 | 185 | 6.0 | 9.0 | 0.00 | 0.00 | 0.00 | 37 | 1007.2 |
| 20260902174943 | 77 | 216 | 7.0 | 9.0 | 0.00 | 0.00 | 0.00 | 37 | 1007.2 |